This demonstration page uses our WeatherBlox Daily Observations layout. Learn more.

Left ArrowRight Arrow

Hourly Observations for April 25, 2018

Temp ( °F °C ) Dew Point ( °F °C ) Humidity (%) Winds ( mph kmh ) Pressure ( in mb ) Visibility ( mi km ) Precip ( " mm )
12:56 am 00:56 Cloudy with Light Rain 40 4.4 38 3.3 93 93 N 17 28 30.34 1027 6 10 0.00 0.03
1:56 am 01:56 Cloudy 40 4.4 38 3.3 93 93 N 18 30 30.33 1027 10 16 0.00 0.03
2:56 am 02:56 Cloudy 40 4.4 38 3.3 93 93 N 12 19 30.33 1027 10 16 0.00 0.00
3:18 am 03:18 Cloudy 39 4 37 3 93 93 N 14 22 30.33 1027 10 16 0.00 0.00
3:56 am 03:56 Cloudy 40 4.4 37 2.8 89 89 NNW 10 17 30.34 1027 10 16 0.00 0.00
4:38 am 04:38 Cloudy 39 4 37 3 93 93 NNW 12 19 30.33 1027 10 16 0.00 0.03
4:56 am 04:56 Cloudy with Light Rain 40 4.4 37 2.8 89 89 NNW 13 20 30.34 1028 10 16 0.00 0.03
5:40 am 05:40 Cloudy with Light Rain 39 4 37 3 93 93 NNW 12 19 30.33 1027 10 16 0.00 0.03
5:56 am 05:56 Cloudy with Light Rain 39 3.9 37 2.8 93 93 N 15 24 30.34 1027 10 16 0.00 0.03
6:56 am 06:56 Cloudy 39 3.9 35 1.7 86 86 N 13 20 30.34 1027 10 16 0.00 0.03
7:56 am 07:56 Cloudy 39 3.9 36 2.2 89 89 N 15 24 30.34 1028 10 16 0.00 0.00
8:56 am 08:56 Cloudy 41 5 33 0.6 73 73 N 15 24 30.34 1027 10 16 0.00 0.00
9:56 am 09:56 Mostly Cloudy 43 6.1 36 2.2 76 76 N 15 24 30.33 1027 10 16 0.00 0.00
10:56 am 10:56 Mostly Cloudy 46 7.8 35 1.7 66 66 N 13 20 30.32 1027 10 16 0.00 0.00
11:56 am 11:56 Cloudy 48 8.9 35 1.7 61 61 N 15 24 30.29 1026 10 16 0.00 0.00
12:56 pm 12:56 Mostly Cloudy 51 10.6 33 0.6 50 50 N 9 15 30.26 1025 10 16 0.00 0.00
1:56 pm 13:56 Mostly Cloudy 52 11.1 33 0.6 49 49 VRB 6 9 30.22 1024 10 16 0.00 0.00
2:56 pm 14:56 Sunny 54 12.2 31 -0.6 42 42 N 5 7 30.20 1023 10 16 0.00 0.00
3:56 pm 15:56 Sunny 57 13.9 32 0 39 39 N 9 15 30.16 1021 10 16 0.00 0.00
4:56 pm 16:56 Sunny 57 13.9 29 -1.7 34 34 WNW 10 17 30.13 1020 10 16 0.00 0.00
5:56 pm 17:56 Sunny 58 14.4 31 -0.6 36 36 WNW 7 11 30.11 1020 10 16 0.00 0.00
6:56 pm 18:56 Sunny 58 14.4 30 -1.1 35 35 W 3 6 30.09 1019 10 16 0.00 0.00
7:56 pm 19:56 Sunny 54 12.2 33 0.6 45 45 Calm 30.06 1018 10 16 0.00 0.00
8:56 pm 20:56 Clear 51 10.6 34 1.1 52 52 undefined N/A 30.06 1018 10 16 0.00 0.00
9:56 pm 21:56 Clear 46 7.8 36 2.2 68 68 S 6 9 30.06 1018 10 16 0.00 0.00
10:56 pm 22:56 Clear 43 6.1 34 1.1 71 71 S 8 13 30.04 1017 10 16 0.00 0.00
11:56 pm 23:56 Clear 43 6.1 35 1.7 74 74 SSW 10 17 30.02 1017 10 16 0.00 0.00

Powered by AerisWeather